Weather reports worldwide

Advertisment
Weybourne, United Kingdom (3488): temperature & dewpoint: 19.05.2019 23:00:00 - 25.05.2019 23:00:00 (BST)Weybourne, United Kingdom (3488): wind speed: 19.05.2019 23:00:00 - 25.05.2019 23:00:00 (BST)Weybourne, United Kingdom (3488): wind direction: 19.05.2019 23:00:00 - 25.05.2019 23:00:00 (BST)Weybourne, United Kingdom (3488): reduced air pressure: 19.05.2019 23:00:00 - 25.05.2019 23:00:00 (BST)Weybourne, United Kingdom (3488): visibility: 19.05.2019 23:00:00 - 25.05.2019 23:00:00 (BST)Weybourne, United Kingdom (3488): sunshine duration: 19.05.2019 23:00:00 - 25.05.2019 23:00:00 (BST)Weybourne, United Kingdom (3488): precipitation: 19.05.2019 23:00:00 - 25.05.2019 23:00:00 (BST)
Date & Time tt [°C] td [°C] ff [km/h] ff [kn] dd ppp [hPa] vv [km] sd [min] rr [mm]
25.05.2019 23:00:00 14,9 10,5 9 5 SW 1015,8 50 0 -
25.05.2019 22:00:00 14,9 10,5 9 5 WSW 1015,8 28 0 0,0
25.05.2019 21:00:00 15,5 11,0 13 7 S 1015,8 40 0 0,0
25.05.2019 20:00:00 16,4 11,0 18 10 SSE 1015,9 45 0 0,0
25.05.2019 19:00:00 16,9 10,5 13 7 SSE 1016,3 50 0 0,0
25.05.2019 18:00:00 15,1 10,5 11 6 E 1016,6 35 0 0,0
25.05.2019 17:00:00 14,6 10,3 13 7 E 1017,1 20 30 0,0
25.05.2019 16:00:00 14,8 9,9 8 4 ENE 1017,6 29 60 0,0
25.05.2019 15:00:00 15,0 9,5 8 4 N 1017,8 35 60 0,0
25.05.2019 14:00:00 15,1 9,8 11 6 NNW 1018,1 30 60 0,0
25.05.2019 13:00:00 15,1 10,0 13 7 NNW 1018,3 30 60 0,0
25.05.2019 12:00:00 15,2 10,1 15 8 NNW 1018,2 29 60 0,0
25.05.2019 11:00:00 15,3 10,8 15 8 NW 1018,3 21 60 0,0
25.05.2019 10:00:00 14,9 10,7 15 8 NW 1018,5 25 60 0,0
25.05.2019 09:00:00 14,1 10,4 16 9 NW 1018,2 30 54 0,0
25.05.2019 08:00:00 13,4 10,3 21 11 NW 1017,8 30 24 0,0
25.05.2019 07:00:00 11,7 9,8 21 11 WNW 1017,3 15 0 0,0
25.05.2019 06:00:00 11,9 9,7 16 9 WNW 1017,0 23 0 0,0
25.05.2019 05:00:00 11,9 10,4 22 12 WNW 1017,0 23 0 0,0
25.05.2019 04:00:00 9,9 7,5 13 7 SW 1016,8 40 0 0,0
25.05.2019 03:00:00 10,3 6,5 13 7 SSW 1017,0 50 0 0,0
25.05.2019 02:00:00 10,0 7,0 11 6 SSW 1017,1 50 0 0,0
25.05.2019 01:00:00 9,8 7,3 5 3 SE 1017,3 50 - 0,0
25.05.2019 00:00:00 9,4 6,4 8 4 ESE 1017,6 50 0 0,0
24.05.2019 23:00:00 9,7 6,4 11 6 SE 1017,4 50 0 0,0
24.05.2019 22:00:00 10,5 6,5 11 6 ESE 1017,4 50 0 0,0
24.05.2019 21:00:00 12,3 8,2 13 7 E 1016,9 21 36 0,0
24.05.2019 20:00:00 13,4 7,3 16 9 E 1016,6 50 60 0,0
24.05.2019 19:00:00 14,0 8,3 18 10 E 1016,4 50 60 0,0
24.05.2019 18:00:00 13,6 8,9 18 10 E 1016,4 35 60 0,0
24.05.2019 17:00:00 13,4 9,1 18 10 ENE 1016,6 50 60 0,0
24.05.2019 16:00:00 13,4 8,0 16 9 ENE 1016,8 30 60 0,0
24.05.2019 15:00:00 13,9 8,0 16 9 NE 1017,0 35 60 0,0
24.05.2019 14:00:00 13,7 8,2 15 8 NE 1016,9 30 60 0,0
24.05.2019 13:00:00 14,1 7,0 13 7 NNE 1016,9 30 60 0,0
24.05.2019 12:00:00 14,6 6,6 18 10 NNW 1016,7 30 60 0,0
24.05.2019 11:00:00 15,3 8,1 21 11 NW 1016,6 30 60 0,0
24.05.2019 10:00:00 14,9 8,3 22 12 WNW 1016,1 35 60 0,0
24.05.2019 09:00:00 14,3 9,8 22 12 WNW 1015,8 27 60 0,0
24.05.2019 08:00:00 13,2 8,6 28 15 WNW 1015,7 30 60 0,0
24.05.2019 07:00:00 10,7 9,1 18 10 WSW 1015,6 16 6 0,0
24.05.2019 06:00:00 9,5 8,1 15 8 WSW 1015,5 20 18 0,0
24.05.2019 05:00:00 9,3 7,6 11 6 W 1015,5 35 0 0,0
24.05.2019 04:00:00 9,5 8,1 15 8 W 1015,2 30 0 0,0
24.05.2019 03:00:00 10,0 8,5 13 7 W 1015,1 18 0 0,0
24.05.2019 02:00:00 10,5 8,9 11 6 W 1014,8 14 0 0,0
24.05.2019 01:00:00 9,3 7,7 8 4 WSW 1014,8 11 - 0,0
24.05.2019 00:00:00 9,6 8,4 9 5 SW 1014,6 9 0 0,0
23.05.2019 23:00:00 11,2 9,3 11 6 S 1014,5 14 0 0,0
23.05.2019 22:00:00 11,8 9,4 8 4 SSW 1014,5 20 0 0,0
23.05.2019 21:00:00 13,2 9,6 8 4 ESE 1014,5 19 36 0,0
23.05.2019 20:00:00 14,7 10,9 9 5 E 1014,4 17 60 0,0
23.05.2019 19:00:00 15,2 10,1 16 9 E 1014,4 21 54 0,0
23.05.2019 18:00:00 17,8 7,4 18 10 E 1014,5 40 60 0,0
23.05.2019 17:00:00 16,8 8,5 26 14 E 1014,8 30 60 0,0
23.05.2019 16:00:00 15,4 7,4 24 13 E 1015,4 50 54 0,0
23.05.2019 15:00:00 16,2 7,6 21 11 E 1015,6 40 60 0,0
23.05.2019 14:00:00 14,9 8,0 15 8 E 1016,1 45 60 0,0
23.05.2019 13:00:00 14,8 8,3 8 4 NE 1016,3 30 54 0,0
23.05.2019 12:00:00 14,4 7,8 9 5 NE 1016,6 50 60 0,0
23.05.2019 11:00:00 14,6 7,3 8 4 N 1017,0 29 60 0,0
23.05.2019 10:00:00 14,3 6,7 9 5 NNW 1017,1 50 60 0,0
23.05.2019 09:00:00 14,6 6,4 11 6 WNW 1017,0 45 60 0,0
23.05.2019 08:00:00 13,8 9,0 13 7 WNW 1016,9 35 60 0,0
23.05.2019 07:00:00 11,4 9,7 8 4 SW 1016,6 40 18 0,0
23.05.2019 06:00:00 9,4 7,7 8 4 SW 1016,3 35 0 0,0
23.05.2019 05:00:00 9,1 7,3 9 5 WSW 1016,4 35 0 0,0
23.05.2019 04:00:00 9,5 7,3 11 6 SW 1016,6 50 0 0,0
23.05.2019 03:00:00 10,7 7,6 11 6 SSW 1016,7 40 0 0,0
23.05.2019 02:00:00 10,9 7,8 13 7 SSW 1016,9 50 0 0,0
23.05.2019 01:00:00 11,8 8,1 16 9 SSW 1016,9 29 - 0,0
23.05.2019 00:00:00 12,2 8,0 16 9 SSW 1017,0 50 0 0,0
22.05.2019 23:00:00 13,4 7,5 18 10 S 1017,0 50 0 0,0
22.05.2019 22:00:00 14,5 7,1 15 8 SSW 1017,3 50 0 0,0
22.05.2019 21:00:00 15,2 7,0 13 7 SSW 1017,3 50 0 0,0
22.05.2019 20:00:00 16,5 6,8 13 7 SW 1017,2 50 0 0,0
22.05.2019 19:00:00 17,8 6,5 16 9 WSW 1017,6 50 0 0,0
22.05.2019 18:00:00 15,3 8,7 13 7 ENE 1017,8 50 30 0,0
22.05.2019 17:00:00 16,3 8,0 9 5 ENE 1018,3 30 18 0,0
22.05.2019 16:00:00 15,1 7,6 5 3 NE 1018,6 50 6 0,0
22.05.2019 15:00:00 15,5 8,1 4 2 NNW 1018,9 50 6 0,0
22.05.2019 14:00:00 14,9 9,7 9 5 NNW 1019,1 50 6 0,0
22.05.2019 13:00:00 15,5 8,7 15 8 NNW 1019,3 30 42 0,0
22.05.2019 12:00:00 17,0 7,8 16 9 W 1019,5 30 0 0,0
22.05.2019 11:00:00 14,9 6,4 11 6 W 1019,7 50 0 0,0
22.05.2019 10:00:00 13,7 7,1 15 8 W 1019,6 17 0 0,0
22.05.2019 09:00:00 13,5 7,4 11 6 WNW 1019,5 50 0 0,0
22.05.2019 08:00:00 11,9 7,9 15 8 WNW 1019,4 40 30 0,0
22.05.2019 07:00:00 10,6 8,9 15 8 W 1019,2 45 54 0,0
22.05.2019 06:00:00 8,6 7,6 13 7 W 1018,9 40 24 0,0
22.05.2019 05:00:00 7,3 6,6 13 7 W 1019,0 45 0 0,0
22.05.2019 04:00:00 8,5 8,0 13 7 WSW 1019,0 7 0 0,0
22.05.2019 03:00:00 8,9 8,1 13 7 WSW 1019,0 5 0 0,0
22.05.2019 02:00:00 9,5 8,6 18 10 SSW 1018,6 9 0 0,0
22.05.2019 01:00:00 9,9 8,2 16 9 S 1018,7 45 - 0,0
22.05.2019 00:00:00 9,4 8,0 11 6 S 1019,0 50 0 0,0
21.05.2019 23:00:00 8,3 6,6 5 3 SSE 1019,2 45 0 0,0
21.05.2019 22:00:00 9,3 8,2 2 1 S 1019,3 26 0 0,0
21.05.2019 21:00:00 10,4 8,3 2 1 NE 1019,1 16 24 0,0
21.05.2019 20:00:00 12,2 9,5 4 2 ENE 1018,6 40 60 0,0
21.05.2019 19:00:00 12,6 9,5 4 2 NE 1018,6 45 60 0,0
21.05.2019 18:00:00 12,6 9,6 8 4 NNE 1018,5 25 60 0,0
21.05.2019 17:00:00 13,3 9,7 5 3 N 1018,7 30 60 0,0
21.05.2019 16:00:00 13,0 9,2 5 3 NNE 1018,6 22 60 0,0
21.05.2019 15:00:00 12,9 9,6 5 3 NE 1018,7 30 60 0,0
21.05.2019 14:00:00 12,9 9,5 13 7 NNE 1018,5 21 60 0,0
21.05.2019 13:00:00 14,6 9,8 16 9 N 1018,2 40 60 0,0
21.05.2019 12:00:00 14,7 10,5 21 11 NW 1017,8 30 60 0,0
21.05.2019 11:00:00 14,3 10,5 21 11 WNW 1017,4 26 36 0,0
21.05.2019 10:00:00 12,4 10,0 18 10 NW 1017,4 15 30 0,0
21.05.2019 09:00:00 12,8 10,0 21 11 WNW 1016,9 19 60 0,0
21.05.2019 08:00:00 12,1 9,6 18 10 WNW 1016,4 17 60 0,0
21.05.2019 07:00:00 10,6 10,4 11 6 W 1016,1 10 24 0,0
21.05.2019 06:00:00 9,6 9,4 15 8 W 1015,9 0,4 0 0,0
21.05.2019 05:00:00 9,5 9,3 15 8 W 1015,7 5 0 0,0
21.05.2019 04:00:00 9,2 9,0 11 6 W 1015,5 8 0 0,0
21.05.2019 03:00:00 8,9 8,7 16 9 WNW 1015,6 3,3 0 0,0
21.05.2019 02:00:00 8,8 8,6 15 8 WNW 1015,1 2,8 0 0,0
21.05.2019 01:00:00 9,4 9,1 13 7 WNW 1015,3 2,9 - 0,0
21.05.2019 00:00:00 9,2 8,8 9 5 NNW 1015,1 4,2 0 0,0
20.05.2019 23:00:00 9,5 9,0 13 7 NNW 1015,2 2,8 0 0,0
20.05.2019 22:00:00 9,6 9,0 13 7 NNW 1015,1 5 0 0,0
20.05.2019 21:00:00 10,0 9,2 11 6 NW 1014,6 5 0 0,0
20.05.2019 20:00:00 10,6 9,3 9 5 NNW 1013,9 8 6 0,0
20.05.2019 19:00:00 11,5 9,5 8 4 N 1013,7 11 30 0,0
20.05.2019 18:00:00 12,2 9,6 9 5 NNE 1013,5 14 54 0,0
20.05.2019 17:00:00 13,1 10,7 11 6 NW 1013,2 20 6 0,0
20.05.2019 16:00:00 11,9 9,9 13 7 WNW 1013,2 21 0 0,0
20.05.2019 15:00:00 11,6 9,9 16 9 WNW 1013,4 20 0 0,0
20.05.2019 14:00:00 12,4 10,3 21 11 WNW 1013,1 18 0 0,0
20.05.2019 13:00:00 12,6 10,4 18 10 WNW 1012,8 18 0 0,0
20.05.2019 12:00:00 11,1 9,8 15 8 NW 1012,8 13 0 0,0
20.05.2019 11:00:00 10,9 9,8 15 8 NW 1012,6 11 0 0,0
20.05.2019 10:00:00 10,6 9,8 16 9 NNW 1012,3 6 0 0,0
20.05.2019 09:00:00 10,7 9,8 16 9 NNW 1011,8 6 0 0,0
20.05.2019 08:00:00 10,7 9,9 18 10 NNW 1011,5 7 0 0,2
20.05.2019 07:00:00 10,4 9,4 16 9 NNW 1011,2 10 0 0,0
20.05.2019 06:00:00 10,4 9,5 16 9 NNW 1011,2 9 0 0,0
20.05.2019 05:00:00 10,3 9,4 16 9 NNW 1010,9 11 0 0,0
20.05.2019 04:00:00 10,3 9,4 15 8 NW 1010,8 10 0 0,0
20.05.2019 03:00:00 10,1 9,3 11 6 NNW 1011,0 12 0 0,0
20.05.2019 02:00:00 10,0 9,2 11 6 NNW 1011,1 10 0 0,0
20.05.2019 01:00:00 10,1 9,6 15 8 NNW 1011,2 6 - 0,0
20.05.2019 00:00:00 10,0 9,5 11 6 NNW 1011,5 7 0 0,0
19.05.2019 23:00:00 10,0 9,4 11 6 NNW 1011,5 6 0 0,0

tt = temperature
td = dewpoint
ff = wind speed
dd = wind direction
ppp = reduced air pressure
vv = visibility
sd = sunshine duration
rr = precipitation

Next stations